,,,PA_Meas_PMT16A,,PR_Meas_QMR101_102,,RH_Meas_QMH101,,SR_Meas_QMS101,,TA_Meas_QMH101,,GenWind,,GenWind,
date,time,status,PA,status,PR,status,RH,status,SR,status,TA,status,DirAvg,status,SpdAvg,
2008-06-17, 00:00:04,VALID,1005.15,VALID,0,VALID,91.3101,VALID,0.100563,VALID,24.2486,VALID,3,VALID,0,
2008-06-17, 00:01:05,VALID,1005.16,VALID,0,VALID,91.2872,VALID,0,VALID,24.2681,VALID,3,VALID,0.0378906,
2008-06-17, 00:02:05,VALID,1005.14,VALID,0,VALID,90.9363,VALID,0.100563,VALID,24.307,VALID,3,VALID,0.240625,
2008-06-17, 00:03:05,VALID,1005.13,VALID,0,VALID,90.7532,VALID,0,VALID,24.3052,VALID,3,VALID,0.253516,
2008-06-17, 00:04:05,VALID,1005.13,VALID,0,VALID,90.5014,VALID,0.100563,VALID,24.3459,VALID,3,VALID,0.211328,
2008-06-17, 00:05:05,VALID,1005.14,VALID,0,VALID,90.3641,VALID,0.100563,VALID,24.3441,VALID,3,VALID,0.183203,
2008-06-17, 00:06:05,VALID,1005.13,VALID,0,VALID,90.4251,VALID,0,VALID,24.3849,VALID,3,VALID,0.150781,
2008-06-17, 00:07:05,VALID,1005.11,VALID,0,VALID,90.1886,VALID,0.100563,VALID,24.4043,VALID,3,VALID,0,
2008-06-17, 00:08:05,VALID,1005.12,VALID,0,VALID,90.0894,VALID,0,VALID,24.4451,VALID,8,VALID,0.176953,
2008-06-17, 00:09:05,VALID,1005.11,VALID,0,VALID,90.1505,VALID,0.100563,VALID,24.4628,VALID,10,VALID,0,
2008-06-17, 00:10:05,VALID,1005.07,VALID,0,VALID,89.9292,VALID,0,VALID,24.4628,VALID,13,VALID,0.344531,
2008-06-17, 00:11:05,VALID,1005.08,VALID,0,VALID,89.6851,VALID,0,VALID,24.4822,VALID,13,VALID,0.263281,
2008-06-17, 00:12:05,VALID,1005.05,VALID,0,VALID,89.5631,VALID,0,VALID,24.5035,VALID,13,VALID,0.158594,
2008-06-17, 00:13:05,VALID,1005.05,VALID,0,VALID,89.3876,VALID,0,VALID,24.5425,VALID,30,VALID,0.469531,
2008-06-17, 00:14:05,VALID,1005.05,VALID,0,VALID,89.1282,VALID,0,VALID,24.5814,VALID,48,VALID,0,
2008-06-17, 00:15:05,VALID,1004.99,VALID,0,VALID,88.9985,VALID,0,VALID,24.5601,VALID,48,VALID,0.0589844,
2008-06-17, 00:16:04,VALID,1005.02,VALID,0,VALID,88.8612,VALID,0,VALID,24.5814,VALID,48,VALID,0,
2008-06-17, 00:17:04,VALID,1004.99,VALID,0,VALID,88.5866,VALID,0,VALID,24.5814,VALID,48,VALID,0.0773437,
2008-06-17, 00:18:04,VALID,1004.94,VALID,0,VALID,88.3882,VALID,0,VALID,24.6009,VALID,48,VALID,0.2625,
2008-06-17, 00:19:04,VALID,1004.96,VALID,0,VALID,88.289,VALID,0,VALID,24.6009,VALID,48,VALID,0.0125,
2008-06-17, 00:20:04,VALID,1004.94,VALID,0,VALID,88.2509,VALID,0,VALID,24.6398,VALID,48,VALID,0.446484,
2008-06-17, 00:21:04,VALID,1004.93,VALID,0,VALID,88.1822,VALID,0,VALID,24.6185,VALID,48,VALID,0.101953,
2008-06-17, 00:22:04,VALID,1004.93,VALID,0,VALID,88.3501,VALID,0,VALID,24.6398,VALID,48,VALID,0,
2008-06-17, 00:23:04,VALID,1004.91,VALID,0,VALID,88.3958,VALID,0,VALID,24.6398,VALID,48,VALID,0,
2008-06-17, 00:24:04,VALID,1004.94,VALID,0,VALID,88.5255,VALID,0,VALID,24.6612,VALID,48,VALID,0,
2008-06-17, 00:25:04,VALID,1004.92,VALID,0,VALID,88.6323,VALID,0,VALID,24.6593,VALID,48,VALID,0,
2008-06-17, 00:26:04,VALID,1004.94,VALID,0,VALID,88.6171,VALID,0,VALID,24.6398,VALID,48,VALID,0,
2008-06-17, 00:27:04,VALID,1004.91,VALID,0,VALID,88.4721,VALID,0,VALID,24.6185,VALID,48,VALID,0,
2008-06-17, 00:28:04,VALID,1004.92,VALID,0,VALID,88.4645,VALID,0.100563,VALID,24.6166,VALID,48,VALID,0,
2008-06-17, 00:29:04,VALID,1004.91,VALID,0,VALID,88.4111,VALID,0.100563,VALID,24.638,VALID,48,VALID,0,
2008-06-17, 00:30:04,VALID,1004.9,VALID,0,VALID,88.3424,VALID,0.100563,VALID,24.6185,VALID,48,VALID,0,
2008-06-17, 00:31:04,VALID,1004.92,VALID,0,VALID,88.5255,VALID,0,VALID,24.599,VALID,48,VALID,0,
2008-06-17, 00:32:04,VALID,1004.92,VALID,0,VALID,88.6171,VALID,0,VALID,24.5796,VALID,48,VALID,0,
2008-06-17, 00:33:04,VALID,1004.91,VALID,0,VALID,88.6018,VALID,0,VALID,24.5814,VALID,48,VALID,0,
2008-06-17, 00:34:04,VALID,1004.9,VALID,0,VALID,88.701,VALID,0,VALID,24.5406,VALID,48,VALID,0,
2008-06-17, 00:35:04,VALID,1004.9,VALID,0,VALID,88.7468,VALID,0,VALID,24.5406,VALID,47,VALID,0,
2008-06-17, 00:36:04,VALID,1004.93,VALID,0,VALID,88.9756,VALID,0,VALID,24.5425,VALID,47,VALID,0,
2008-06-17, 00:37:04,VALID,1004.92,VALID,0,VALID,88.8993,VALID,0.100563,VALID,24.5212,VALID,47,VALID,0,
2008-06-17, 00:38:04,VALID,1004.95,VALID,0,VALID,89.3571,VALID,0.100563,VALID,24.5406,VALID,47,VALID,0,
2008-06-17, 00:39:04,VALID,1004.92,VALID,0,VALID,89.6165,VALID,0,VALID,24.5017,VALID,47,VALID,0,
2008-06-17, 00:40:04,VALID,1004.93,VALID,0,VALID,89.8758,VALID,0.100563,VALID,24.4822,VALID,47,VALID,0,
2008-06-17, 00:41:04,VALID,1004.92,VALID,0,VALID,90.0132,VALID,0,VALID,24.4433,VALID,47,VALID,0,
2008-06-17, 00:42:04,VALID,1004.89,VALID,0,VALID,90.181,VALID,0,VALID,24.4451,VALID,47,VALID,0,
2008-06-17, 00:43:04,VALID,1004.92,VALID,0,VALID,90.4251,VALID,0,VALID,24.4062,VALID,47,VALID,0,
2008-06-17, 00:44:04,VALID,1004.9,VALID,0,VALID,90.5624,VALID,0,VALID,24.4062,VALID,47,VALID,0,
2008-06-17, 00:45:04,VALID,1004.9,VALID,0,VALID,90.5624,VALID,0,VALID,24.3654,VALID,47,VALID,0,
2008-06-17, 00:46:04,VALID,1004.88,VALID,0,VALID,90.5167,VALID,0,VALID,24.3459,VALID,47,VALID,0,
2008-06-17, 00:47:04,VALID,1004.91,VALID,0,VALID,90.5548,VALID,0,VALID,24.3654,VALID,47,VALID,0,
2008-06-17, 00:48:04,VALID,1004.9,VALID,0,VALID,90.6692,VALID,0,VALID,24.3673,VALID,47,VALID,0,
2008-06-17, 00:49:04,VALID,1004.92,VALID,0,VALID,90.776,VALID,0,VALID,24.3673,VALID,47,VALID,0,
2008-06-17, 00:50:04,VALID,1004.9,VALID,0,VALID,90.776,VALID,0,VALID,24.3459,VALID,47,VALID,0,
2008-06-17, 00:51:04,VALID,1004.89,VALID,0,VALID,90.7303,VALID,0,VALID,24.307,VALID,42,VALID,0,
2008-06-17, 00:52:04,VALID,1004.89,VALID,0,VALID,90.6006,VALID,0,VALID,24.3283,VALID,32,VALID,0.430469,
2008-06-17, 00:53:04,VALID,1004.89,VALID,0,VALID,90.2268,VALID,0.100563,VALID,24.4257,VALID,35,VALID,0.321094,
2008-06-17, 00:54:04,VALID,1004.86,VALID,0,VALID,89.6088,VALID,0,VALID,24.4646,VALID,356,VALID,0.478516,
2008-06-17, 00:55:04,VALID,1004.87,VALID,0,VALID,89.1282,VALID,0,VALID,24.5212,VALID,21,VALID,0.684766,
2008-06-17, 00:56:04,VALID,1004.89,VALID,0,VALID,88.6323,VALID,0,VALID,24.6204,VALID,41,VALID,0.575781,
2008-06-17, 00:57:04,VALID,1004.87,VALID,0,VALID,88.0296,VALID,0,VALID,24.6983,VALID,31,VALID,0.619531,
2008-06-17, 00:58:04,VALID,1004.87,VALID,0,VALID,87.8466,VALID,0,VALID,24.7353,VALID,38,VALID,0.486328,
2008-06-17, 00:59:04,VALID,1004.87,VALID,0,VALID,87.5109,VALID,0,VALID,24.7937,VALID,43,VALID,0.752734,
2008-06-17, 01:00:04,VALID,1004.84,VALID,0,VALID,86.481,VALID,0,VALID,24.8911,VALID,33,VALID,1.05547,
2008-06-17, 01:01:04,VALID,1004.8,VALID,0,VALID,86.0995,VALID,0,VALID,25.0663,VALID,40,VALID,0.705859,
2008-06-17, 01:02:04,VALID,1004.79,VALID,0,VALID,85.6342,VALID,0,VALID,25.1442,VALID,79,VALID,0.828516,
2008-06-17, 01:03:04,VALID,1004.76,VALID,0,VALID,85.535,VALID,0,VALID,25.1442,VALID,60,VALID,0.167578,
2008-06-17, 01:04:04,VALID,1004.75,VALID,0,VALID,85.2604,VALID,0,VALID,25.1461,VALID,31,VALID,1.09805,
2008-06-17, 01:05:04,VALID,1004.71,VALID,0,VALID,85.3519,VALID,0,VALID,25.1675,VALID,63,VALID,0.503906,
2008-06-17, 01:06:04,VALID,1004.69,VALID,0,VALID,85.1307,VALID,0,VALID,25.1656,VALID,34,VALID,0.697266,
2008-06-17, 01:07:04,VALID,1004.66,VALID,0,VALID,85.123,VALID,0,VALID,25.1851,VALID,35,VALID,0.316797,
2008-06-17, 01:08:04,VALID,1004.67,VALID,0,VALID,85.3748,VALID,0,VALID,25.1442,VALID,35,VALID,0.119922,
2008-06-17, 01:09:04,VALID,1004.66,VALID,0,VALID,85.5579,VALID,0,VALID,25.1248,VALID,35,VALID,0.0988281,
2008-06-17, 01:10:04,VALID,1004.63,VALID,0,VALID,85.4511,VALID,0,VALID,25.1053,VALID,36,VALID,0.179297,
2008-06-17, 01:11:04,VALID,1004.64,VALID,0,VALID,85.6494,VALID,0,VALID,25.1053,VALID,30,VALID,0.851953,
2008-06-17, 01:12:04,VALID,1004.62,VALID,0,VALID,85.7105,VALID,0,VALID,25.1267,VALID,29,VALID,0.539453,
2008-06-17, 01:13:04,VALID,1004.61,VALID,0,VALID,85.8936,VALID,0,VALID,25.1053,VALID,27,VALID,0.689844,
2008-06-17, 01:14:04,VALID,1004.61,VALID,0,VALID,86.0385,VALID,0,VALID,25.1267,VALID,35,VALID,0.623047,
2008-06-17, 01:15:04,VALID,1004.54,VALID,0,VALID,86.3666,VALID,0,VALID,25.1072,VALID,22,VALID,0.652344,
2008-06-17, 01:16:04,VALID,1004.51,VALID,0,VALID,86.4886,VALID,0,VALID,25.0469,VALID,23,VALID,0.348828,
2008-06-17, 01:17:04,VALID,1004.5,VALID,0,VALID,86.6793,VALID,0,VALID,25.0274,VALID,27,VALID,0.366016,
2008-06-17, 01:18:04,VALID,1004.5,VALID,0,VALID,86.8243,VALID,0,VALID,25.0488,VALID,52,VALID,0.274219,
2008-06-17, 01:19:04,VALID,1004.46,VALID,0,VALID,87.0303,VALID,0,VALID,25.0274,VALID,52,VALID,0.0644531,
2008-06-17, 01:20:04,VALID,1004.47,VALID,0,VALID,87.0913,VALID,0,VALID,25.0079,VALID,52,VALID,0.239844,
2008-06-17, 01:21:04,VALID,1004.44,VALID,0,VALID,87.3202,VALID,0,VALID,25.0293,VALID,30,VALID,0.0535156,
2008-06-17, 01:22:04,VALID,1004.42,VALID,0,VALID,87.3888,VALID,0,VALID,25.0293,VALID,37,VALID,0.490625,
2008-06-17, 01:23:04,VALID,1004.43,VALID,0,VALID,87.4117,VALID,0,VALID,25.0098,VALID,11,VALID,0.474609,
2008-06-17, 01:24:04,VALID,1004.42,VALID,0,VALID,87.5261,VALID,0,VALID,24.9885,VALID,53,VALID,0.175,
2008-06-17, 01:25:04,VALID,1004.43,VALID,0,VALID,87.5414,VALID,0,VALID,25.0098,VALID,35,VALID,0.420703,
2008-06-17, 01:26:04,VALID,1004.43,VALID,0,VALID,87.4575,VALID,0,VALID,25.0079,VALID,40,VALID,0.612109,
2008-06-17, 01:27:04,VALID,1004.44,VALID,0,VALID,87.488,VALID,0,VALID,25.0079,VALID,36,VALID,0.535156,
2008-06-17, 01:28:04,VALID,1004.44,VALID,0,VALID,87.6482,VALID,0,VALID,25.0098,VALID,35,VALID,0.3375,
2008-06-17, 01:29:04,VALID,1004.46,VALID,0,VALID,87.7779,VALID,0,VALID,24.9904,VALID,23,VALID,0.666406,
2008-06-17, 01:30:04,VALID,1004.46,VALID,0,VALID,88.0678,VALID,0,VALID,24.9709,VALID,20,VALID,0.184375,
2008-06-17, 01:31:04,VALID,1004.42,VALID,0,VALID,88.1288,VALID,0,VALID,24.93,VALID,20,VALID,0.338281,
2008-06-17, 01:32:04,VALID,1004.45,VALID,0,VALID,88.2356,VALID,0,VALID,24.9319,VALID,20,VALID,0.317969,
2008-06-17, 01:33:04,VALID,1004.45,VALID,0,VALID,88.3348,VALID,0,VALID,24.893,VALID,20,VALID,0,
2008-06-17, 01:34:04,VALID,1004.42,VALID,0,VALID,88.2433,VALID,0,VALID,24.8327,VALID,20,VALID,0.155859,
2008-06-17, 01:35:04,VALID,1004.44,VALID,0,VALID,88.2585,VALID,0,VALID,24.8327,VALID,20,VALID,0,
2008-06-17, 01:36:04,VALID,1004.43,VALID,0,VALID,88.2433,VALID,0,VALID,24.854,VALID,20,VALID,0.119531,
2008-06-17, 01:37:04,VALID,1004.41,VALID,0,VALID,88.3119,VALID,0,VALID,24.854,VALID,20,VALID,0.283594,
2008-06-17, 01:38:04,VALID,1004.42,VALID,0,VALID,88.3958,VALID,0,VALID,24.8346,VALID,20,VALID,0.141797,
2008-06-17, 01:39:04,VALID,1004.41,VALID,0,VALID,88.3424,VALID,0,VALID,24.8346,VALID,21,VALID,0.138281,
2008-06-17, 01:40:04,VALID,1004.44,VALID,0,VALID,88.3653,VALID,0,VALID,24.8346,VALID,21,VALID,0,
2008-06-17, 01:41:04,VALID,1004.43,VALID,0,VALID,88.4111,VALID,0,VALID,24.7937,VALID,21,VALID,0,
2008-06-17, 01:42:04,VALID,1004.45,VALID,0,VALID,88.6857,VALID,0,VALID,24.7937,VALID,21,VALID,0.139844,
2008-06-17, 01:43:04,VALID,1004.44,VALID,0,VALID,88.556,VALID,0,VALID,24.7956,VALID,21,VALID,0,
2008-06-17, 01:44:04,VALID,1004.42,VALID,0,VALID,88.556,VALID,0,VALID,24.7548,VALID,21,VALID,0,
2008-06-17, 01:45:04,VALID,1004.43,VALID,0,VALID,88.6171,VALID,0,VALID,24.7761,VALID,21,VALID,0,
2008-06-17, 01:46:04,VALID,1004.44,VALID,0,VALID,88.6705,VALID,0,VALID,24.7353,VALID,21,VALID,0.245703,
2008-06-17, 01:47:04,VALID,1004.43,VALID,0,VALID,88.7849,VALID,0,VALID,24.7353,VALID,22,VALID,0.25,
2008-06-17, 01:48:04,VALID,1004.41,VALID,0,VALID,88.9146,VALID,0,VALID,24.6964,VALID,22,VALID,0,
2008-06-17, 01:49:04,VALID,1004.4,VALID,0,VALID,89.0214,VALID,0,VALID,24.6769,VALID,22,VALID,0,
2008-06-17, 01:50:04,VALID,1004.4,VALID,0,VALID,89.0824,VALID,0,VALID,24.6593,VALID,22,VALID,0,
2008-06-17, 01:51:04,VALID,1004.39,VALID,0,VALID,89.174,VALID,0,VALID,24.6612,VALID,22,VALID,0,
2008-06-17, 01:52:04,VALID,1004.35,VALID,0,VALID,89.3266,VALID,0,VALID,24.599,VALID,22,VALID,0.255469,
2008-06-17, 01:53:04,VALID,1004.34,VALID,0,VALID,89.4791,VALID,0,VALID,24.6009,VALID,22,VALID,0.142969,
2008-06-17, 01:54:04,VALID,1004.32,VALID,0,VALID,89.5249,VALID,0,VALID,24.5814,VALID,29,VALID,0.25625,
2008-06-17, 01:55:04,VALID,1004.31,VALID,0,VALID,89.7004,VALID,0,VALID,24.562,VALID,29,VALID,0.0683594,
2008-06-17, 01:56:04,VALID,1004.28,VALID,0,VALID,89.7996,VALID,0,VALID,24.5212,VALID,29,VALID,0.123828,
2008-06-17, 01:57:04,VALID,1004.27,VALID,0,VALID,89.9445,VALID,0,VALID,24.4822,VALID,29,VALID,0.342187,
2008-06-17, 01:58:04,VALID,1004.26,VALID,0,VALID,90.1276,VALID,0,VALID,24.4628,VALID,29,VALID,0.453906,
2008-06-17, 01:59:04,VALID,1004.23,VALID,0,VALID,90.242,VALID,0.100563,VALID,24.4238,VALID,29,VALID,0.235938,
2008-06-17, 02:00:04,VALID,1004.24,VALID,0,VALID,90.3488,VALID,0,VALID,24.4257,VALID,29,VALID,0.339453,
2008-06-17, 02:01:04,VALID,1004.22,VALID,0,VALID,90.5396,VALID,0,VALID,24.3849,VALID,29,VALID,0.150781,
2008-06-17, 02:02:04,VALID,1004.2,VALID,0,VALID,90.776,VALID,0,VALID,24.4062,VALID,29,VALID,0.29375,
2008-06-17, 02:03:04,VALID,1004.15,VALID,0,VALID,91.0431,VALID,0,VALID,24.3654,VALID,29,VALID,0.278906,
2008-06-17, 02:04:04,VALID,1004.08,VALID,0,VALID,91.249,VALID,0,VALID,24.3867,VALID,29,VALID,0.202344,
2008-06-17, 02:05:04,VALID,1003.86,VALID,0,VALID,91.4092,VALID,0,VALID,24.3673,VALID,29,VALID,0,
2008-06-17, 02:06:04,VALID,1003.73,VALID,0,VALID,91.455,VALID,0,VALID,24.3478,VALID,29,VALID,0.267188,
2008-06-17, 02:07:04,VALID,1003.9,VALID,0,VALID,91.5237,VALID,0,VALID,24.3283,VALID,29,VALID,0.360938,
2008-06-17, 07:18:04,VALID,1005.27,VALID,0,VALID,93.202,VALID,80.8526,VALID,23.355,VALID,81,VALID,0.409766,
2008-06-17, 07:19:04,VALID,1005.27,VALID,0,VALID,93.2707,VALID,82.8639,VALID,23.3532,VALID,81,VALID,0.169141,
2008-06-17, 07:20:04,VALID,1005.33,VALID,0,VALID,93.4614,VALID,84.9757,VALID,23.3921,VALID,81,VALID,0.217969,
2008-06-17, 07:21:04,VALID,1005.3,VALID,0,VALID,93.5758,VALID,86.9869,VALID,23.4718,VALID,81,VALID,0.311719,
2008-06-17, 07:22:04,VALID,1005.31,VALID,0,VALID,93.408,VALID,89.1993,VALID,23.47,VALID,81,VALID,0.190234,
2008-06-17, 07:23:04,VALID,1005.31,VALID,0,VALID,93.4614,VALID,91.4117,VALID,23.5089,VALID,81,VALID,0,
2008-06-17, 07:24:04,VALID,1005.34,VALID,0,VALID,93.4462,VALID,93.5235,VALID,23.5478,VALID,81,VALID,0,
2008-06-17, 07:25:04,VALID,1005.36,VALID,0,VALID,93.6064,VALID,95.7359,VALID,23.6062,VALID,81,VALID,0.0671875,
2008-06-17, 07:26:04,VALID,1005.37,VALID,0,VALID,93.675,VALID,97.7472,VALID,23.7053,VALID,81,VALID,0.0523437,
2008-06-17, 07:27:04,VALID,1005.4,VALID,0,VALID,93.2707,VALID,99.859,VALID,23.7053,VALID,81,VALID,0,
2008-06-17, 07:28:04,VALID,1005.43,VALID,0,VALID,92.8282,VALID,101.971,VALID,23.6841,VALID,81,VALID,0.00195313,
2008-06-17, 07:29:04,VALID,1005.41,VALID,0,VALID,92.9045,VALID,103.882,VALID,23.7035,VALID,73,VALID,0,
2008-06-17, 07:30:04,VALID,1005.42,VALID,0,VALID,92.9579,VALID,105.692,VALID,23.7425,VALID,11,VALID,0.484766,
2008-06-17, 07:31:04,VALID,1005.41,VALID,0,VALID,93.1029,VALID,107.301,VALID,23.7832,VALID,6,VALID,0.516797,
2008-06-17, 07:32:04,VALID,1005.41,VALID,0,VALID,93.1791,VALID,109.111,VALID,23.8203,VALID,352,VALID,0.584766,
2008-06-17, 07:33:04,VALID,1005.44,VALID,0,VALID,92.4849,VALID,110.921,VALID,23.8203,VALID,360,VALID,0.958203,
2008-06-17, 07:34:04,VALID,1005.42,VALID,0,VALID,91.3101,VALID,112.832,VALID,23.7619,VALID,349,VALID,0.844141,
2008-06-17, 07:35:04,VALID,1005.45,VALID,0,VALID,91.1193,VALID,114.441,VALID,23.7619,VALID,357,VALID,0.752734,
2008-06-17, 07:36:04,VALID,1005.48,VALID,0,VALID,90.9057,VALID,115.647,VALID,23.8009,VALID,6,VALID,0.641797,
2008-06-17, 07:37:04,VALID,1005.47,VALID,0,VALID,90.2878,VALID,117.055,VALID,23.8398,VALID,3,VALID,0.421875,
2008-06-17, 07:38:04,VALID,1005.48,VALID,0,VALID,89.9292,VALID,118.363,VALID,23.9389,VALID,356,VALID,0.464063,
2008-06-17, 07:39:04,VALID,1005.5,VALID,0,VALID,88.4492,VALID,119.569,VALID,23.9584,VALID,356,VALID,0.442187,
2008-06-17, 07:40:04,VALID,1005.51,VALID,0,VALID,87.0837,VALID,120.877,VALID,23.9973,VALID,352,VALID,0.787109,
2008-06-17, 07:41:04,VALID,1005.49,VALID,0,VALID,86.6793,VALID,121.581,VALID,24.0363,VALID,355,VALID,0.827344,
2008-06-17, 07:42:04,VALID,1005.47,VALID,0,VALID,86.1835,VALID,122.385,VALID,24.0734,VALID,346,VALID,0.483594,
2008-06-17, 07:43:04,VALID,1005.49,VALID,0,VALID,85.1917,VALID,123.19,VALID,24.1531,VALID,354,VALID,0.621484,
2008-06-17, 07:44:04,VALID,1005.48,VALID,0,VALID,85.1688,VALID,124.095,VALID,24.2115,VALID,355,VALID,0.634375,
2008-06-17, 07:45:04,VALID,1005.45,VALID,0,VALID,84.7035,VALID,124.799,VALID,24.2486,VALID,352,VALID,0.577734,
2008-06-17, 07:46:04,VALID,1005.48,VALID,0,VALID,85.123,VALID,125.704,VALID,24.3283,VALID,354,VALID,0.519922,
2008-06-17, 07:47:04,VALID,1005.45,VALID,0,VALID,84.5661,VALID,126.709,VALID,24.3459,VALID,354,VALID,0.6375,
2008-06-17, 07:48:04,VALID,1005.46,VALID,0,VALID,84.6958,VALID,127.715,VALID,24.408,VALID,356,VALID,0.507422,
2008-06-17, 07:49:04,VALID,1005.48,VALID,0,VALID,83.7117,VALID,129.123,VALID,24.4257,VALID,358,VALID,0.710547,
2008-06-17, 07:50:04,VALID,1005.43,VALID,0,VALID,83.4142,VALID,130.631,VALID,24.4646,VALID,351,VALID,0.543359,
2008-06-17, 07:51:04,VALID,1005.43,VALID,0,VALID,84.4899,VALID,132.14,VALID,24.523,VALID,344,VALID,0.316406,
2008-06-17, 07:52:04,VALID,1005.42,VALID,0,VALID,84.2305,VALID,133.548,VALID,24.6028,VALID,345,VALID,0.557031,
2008-06-17, 07:53:04,VALID,1005.43,VALID,0,VALID,84.6119,VALID,134.855,VALID,24.6398,VALID,344,VALID,0.441797,
2008-06-17, 07:54:04,VALID,1005.41,VALID,0,VALID,83.9253,VALID,136.062,VALID,24.6593,VALID,346,VALID,0.463672,
2008-06-17, 07:55:04,VALID,1005.46,VALID,0,VALID,84.9094,VALID,137.268,VALID,24.7372,VALID,348,VALID,0.129297,
2008-06-17, 07:56:04,VALID,1005.44,VALID,0,VALID,85.4587,VALID,138.777,VALID,24.8364,VALID,348,VALID,0.0269531,
2008-06-17, 07:57:04,VALID,1005.45,VALID,0,VALID,85.0925,VALID,140.688,VALID,24.8735,VALID,339,VALID,0.250391,
2008-06-17, 07:58:04,VALID,1005.43,VALID,0,VALID,82.9641,VALID,143.403,VALID,24.9125,VALID,289,VALID,0.760938,
2008-06-17, 07:59:04,VALID,1005.43,VALID,0,VALID,83.5286,VALID,146.52,VALID,24.9709,VALID,286,VALID,0.0195313,
2008-06-17, 08:00:04,VALID,1005.44,VALID,0,VALID,82.7581,VALID,149.839,VALID,25.0098,VALID,286,VALID,0.0046875,
2008-06-17, 08:01:04,VALID,1005.42,VALID,0,VALID,82.4301,VALID,153.861,VALID,25.1286,VALID,289,VALID,0.272266,
2008-06-17, 08:02:04,VALID,1005.44,VALID,0,VALID,82.7734,VALID,158.889,VALID,25.1851,VALID,306,VALID,0.169531,
2008-06-17, 08:03:04,VALID,1005.46,VALID,0,VALID,82.1707,VALID,160.297,VALID,25.2435,VALID,303,VALID,0.410156,
2008-06-17, 08:04:04,VALID,1005.44,VALID,0,VALID,82.4377,VALID,163.113,VALID,25.3019,VALID,358,VALID,0.0867188,
2008-06-17, 08:05:04,VALID,1005.46,VALID,0,VALID,81.9876,VALID,166.432,VALID,25.3818,VALID,295,VALID,0.251563,
2008-06-17, 08:06:04,VALID,1005.46,VALID,0,VALID,82.8802,VALID,168.745,VALID,25.4383,VALID,294,VALID,0.0015625,
2008-06-17, 08:07:04,VALID,1005.44,VALID,0,VALID,81.9418,VALID,170.152,VALID,25.5181,VALID,291,VALID,0.357422,
2008-06-17, 08:08:04,VALID,1005.44,VALID,0,VALID,80.8356,VALID,173.069,VALID,25.5142,VALID,356,VALID,0.242969,
2008-06-17, 08:09:04,VALID,1005.41,VALID,0,VALID,80.355,VALID,174.074,VALID,25.6136,VALID,339,VALID,0.478516,
2008-06-17, 08:10:04,VALID,1005.39,VALID,0,VALID,79.554,VALID,174.98,VALID,25.672,VALID,357,VALID,0.24375,
2008-06-17, 08:11:04,VALID,1005.39,VALID,0,VALID,80.2329,VALID,177.594,VALID,25.6895,VALID,357,VALID,0.332031,
2008-06-17, 08:12:04,VALID,1005.39,VALID,0,VALID,80.1795,VALID,178.801,VALID,25.7674,VALID,357,VALID,0.0757812,
2008-06-17, 08:13:04,VALID,1005.37,VALID,0,VALID,80.0956,VALID,179.907,VALID,25.8064,VALID,305,VALID,0.438281,
2008-06-17, 08:14:04,VALID,1005.37,VALID,0,VALID,80.4618,VALID,184.03,VALID,25.8668,VALID,300,VALID,0.261719,
2008-06-17, 08:15:04,VALID,1005.37,VALID,0,VALID,80.4389,VALID,189.461,VALID,25.9252,VALID,353,VALID,0.670703,
2008-06-17, 08:16:04,VALID,1005.37,VALID,0,VALID,81.4917,VALID,194.69,VALID,25.9038,VALID,340,VALID,0.326562,
2008-06-17, 08:17:04,VALID,1005.35,VALID,0,VALID,81.8884,VALID,198.21,VALID,25.9642,VALID,28,VALID,0.289063,
2008-06-17, 08:18:04,VALID,1005.38,VALID,0,VALID,82.1402,VALID,201.729,VALID,26.0031,VALID,17,VALID,0.221875,
2008-06-17, 08:19:04,VALID,1005.36,VALID,0,VALID,81.2399,VALID,207.059,VALID,26.081,VALID,351,VALID,0.539453,
2008-06-17, 08:20:04,VALID,1005.39,VALID,0,VALID,81.7206,VALID,213.193,VALID,26.12,VALID,357,VALID,0.220313,
2008-06-17, 08:21:04,VALID,1005.33,VALID,0,VALID,82.4529,VALID,216.11,VALID,26.1784,VALID,337,VALID,0.185547,
2008-06-17, 08:22:04,VALID,1005.36,VALID,0,VALID,82.369,VALID,222.345,VALID,26.2544,VALID,338,VALID,0.363672,
2008-06-17, 08:23:04,VALID,1005.38,VALID,0,VALID,82.4606,VALID,224.959,VALID,26.3753,VALID,336,VALID,0.352734,
2008-06-17, 08:24:04,VALID,1005.38,VALID,0,VALID,81.4307,VALID,226.669,VALID,26.4317,VALID,341,VALID,0.317187,
2008-06-17, 08:25:04,VALID,1005.39,VALID,0,VALID,80.3703,VALID,225.864,VALID,26.4512,VALID,294,VALID,0.395703,
2008-06-17, 08:26:04,VALID,1005.37,VALID,0,VALID,78.8674,VALID,226.267,VALID,26.5096,VALID,288,VALID,1.13086,
2008-06-17, 08:27:04,VALID,1005.4,VALID,0,VALID,79.9964,VALID,233.105,VALID,26.5291,VALID,289,VALID,0.898438,
2008-06-17, 08:28:04,VALID,1005.37,VALID,0,VALID,79.7905,VALID,236.926,VALID,26.5896,VALID,286,VALID,0.339063,
2008-06-17, 08:29:04,VALID,1005.36,VALID,0,VALID,78.4936,VALID,238.435,VALID,26.6285,VALID,340,VALID,0.732031,
2008-06-17, 08:30:04,VALID,1005.36,VALID,0,VALID,78.7377,VALID,245.072,VALID,26.646,VALID,355,VALID,0.688672,
2008-06-17, 08:31:04,VALID,1005.34,VALID,0,VALID,77.9214,VALID,259.151,VALID,26.687,VALID,355,VALID,0.787891,
2008-06-17, 08:32:04,VALID,1005.34,VALID,0,VALID,79.2793,VALID,263.575,VALID,26.685,VALID,344,VALID,0.173438,
2008-06-17, 08:33:04,VALID,1005.35,VALID,0,VALID,79.4777,VALID,262.268,VALID,26.7824,VALID,336,VALID,0.353516,
2008-06-17, 08:34:04,VALID,1005.34,VALID,0,VALID,78.9894,VALID,269.509,VALID,26.9013,VALID,335,VALID,0.538672,
2008-06-17, 08:35:04,VALID,1005.32,VALID,0,VALID,77.334,VALID,284.694,VALID,26.9208,VALID,344,VALID,0.901953,
2008-06-17, 08:36:04,VALID,1005.34,VALID,0,VALID,78.1884,VALID,277.956,VALID,26.9793,VALID,318,VALID,0.576172,
2008-06-17, 08:37:04,VALID,1005.31,VALID,0,VALID,77.5018,VALID,284.191,VALID,26.9772,VALID,359,VALID,0.762109,
2008-06-17, 08:38:04,VALID,1005.32,VALID,0,VALID,77.395,VALID,271.218,VALID,27.0572,VALID,350,VALID,0.181641,
2008-06-17, 08:39:04,VALID,1005.32,VALID,0,VALID,76.2812,VALID,277.554,VALID,27.1157,VALID,3,VALID,0.882422,
2008-06-17, 08:40:04,VALID,1005.34,VALID,0,VALID,76.6626,VALID,300.683,VALID,27.1352,VALID,360,VALID,0.953125,
2008-06-17, 08:41:04,VALID,1005.33,VALID,0,VALID,77.1966,VALID,328.036,VALID,27.0942,VALID,13,VALID,0.908984,
2008-06-17, 08:42:04,VALID,1005.35,VALID,0,VALID,78.0129,VALID,317.678,VALID,27.1157,VALID,329,VALID,0.620313,
2008-06-17, 08:43:04,VALID,1005.39,VALID,0,VALID,76.6245,VALID,299.275,VALID,27.1547,VALID,356,VALID,1.00547,
2008-06-17, 08:44:04,VALID,1005.35,VALID,0,VALID,77.3187,VALID,328.439,VALID,27.1936,VALID,329,VALID,0.527734,
2008-06-17, 08:45:04,VALID,1005.35,VALID,0,VALID,76.1286,VALID,311.242,VALID,27.2521,VALID,295,VALID,0.659375,
2008-06-17, 08:46:04,VALID,1005.38,VALID,0,VALID,76.5711,VALID,289.621,VALID,27.2911,VALID,291,VALID,0.769531,
2008-06-17, 08:47:04,VALID,1005.37,VALID,0,VALID,77.9366,VALID,294.851,VALID,27.3475,VALID,7,VALID,0.740625,
2008-06-17, 08:48:04,VALID,1005.36,VALID,0,VALID,77.6239,VALID,320.595,VALID,27.4059,VALID,4,VALID,0.233594,
2008-06-17, 08:49:04,VALID,1005.39,VALID,0,VALID,77.0135,VALID,345.937,VALID,27.4665,VALID,340,VALID,0.532031,
2008-06-17, 08:50:04,VALID,1005.37,VALID,0,VALID,77.9138,VALID,338.495,VALID,27.6029,VALID,301,VALID,0.327734,
2008-06-17, 08:51:04,VALID,1005.36,VALID,0,VALID,76.449,VALID,358.004,VALID,27.6983,VALID,305,VALID,0.353516,
2008-06-17, 08:52:04,VALID,1005.39,VALID,0,VALID,76.4338,VALID,339.199,VALID,27.8347,VALID,273,VALID,0.53125,